| time (UTC) | temp C | wind direction | speed KPH | gust KPH | rain 1hr cm | rain 24hr cm | rain mn cm | humidity % | barometer mb |
| 20260901001040 | 30 | 89 | 1.6 | 3.2 | 0.00 | 0.00 | 0.00 | 69 | 1013.3 |
| 20260901000536 | 30 | 269 | 1.6 | 3.2 | 0.00 | 0.00 | 0.00 | 69 | 1013.3 |
| 20260901000045 | 30 | 216 | 1.6 | 3.2 | 0.00 | 0.00 | 0.00 | 69 | 1013.3 |
| 20260831235536 | 30 | 201 | 1.6 | 3.2 | 0.00 | 0.00 | 0.00 | 68 | 1013.3 |
| 20260831235032 | 30 | 117 | 1.6 | 4.8 | 0.00 | 0.00 | 0.00 | 67 | 1013.3 |
| 20260831234517 | 30 | 178 | 3.2 | 4.8 | 0.00 | 0.00 | 0.00 | 65 | 1013.4 |
| 20260831234033 | 30 | 213 | 3.2 | 6.4 | 0.00 | 0.00 | 0.00 | 65 | 1013.4 |
| 20260831233517 | 31 | 246 | 3.2 | 6.4 | 0.00 | 0.00 | 0.00 | 65 | 1013.4 |
| 20260831233035 | 31 | 197 | 4.8 | 6.4 | 0.00 | 0.00 | 0.00 | 64 | 1013.5 |
| 20260831232540 | 31 | 213 | 3.2 | 6.4 | 0.00 | 0.00 | 0.00 | 63 | 1013.4 |
| 20260831232029 | 31 | 201 | 3.2 | 6.4 | 0.00 | 0.00 | 0.00 | 61 | 1013.4 |
| 20260831231515 | 31 | 170 | 3.2 | 6.4 | 0.00 | 0.00 | 0.00 | 63 | 1013.4 |
| 20260831231020 | 31 | 223 | 3.2 | 6.4 | 0.00 | 0.00 | 0.00 | 62 | 1013.5 |
| 20260831230514 | 31 | 231 | 4.8 | 8.0 | 0.00 | 0.00 | 0.00 | 60 | 1013.4 |
| 20260831230021 | 31 | 191 | 4.8 | 8.0 | 0.00 | 0.00 | 0.00 | 63 | 1013.5 |
| 20260831225553 | 31 | 193 | 3.2 | 9.7 | 0.00 | 0.00 | 0.00 | 62 | 1013.5 |
| 20260831225019 | 31 | 223 | 4.8 | 9.7 | 0.00 | 0.00 | 0.00 | 60 | 1013.5 |
| 20260831224515 | 31 | 193 | 6.4 | 9.7 | 0.00 | 0.00 | 0.00 | 61 | 1013.6 |
| 20260831224018 | 31 | 168 | 4.8 | 11.3 | 0.00 | 0.00 | 0.00 | 63 | 1013.6 |
| 20260831223533 | 31 | 223 | 4.8 | 11.3 | 0.00 | 0.00 | 0.00 | 63 | 1013.6 |
| 20260831223019 | 31 | 183 | 4.8 | 8.0 | 0.00 | 0.00 | 0.00 | 62 | 1013.5 |
| 20260831222537 | 31 | 314 | 3.2 | 11.3 | 0.00 | 0.00 | 0.00 | 62 | 1013.7 |
| 20260831222023 | 31 | 199 | 6.4 | 11.3 | 0.00 | 0.00 | 0.00 | 61 | 1013.5 |
| 20260831221536 | 31 | 190 | 4.8 | 9.7 | 0.00 | 0.00 | 0.00 | 59 | 1013.5 |
| 20260831221034 | 31 | 213 | 4.8 | 9.7 | 0.00 | 0.00 | 0.00 | 59 | 1013.7 |
| 20260831220518 | 31 | 218 | 4.8 | 9.7 | 0.00 | 0.00 | 0.00 | 59 | 1013.7 |
| 20260831220032 | 31 | 229 | 4.8 | 9.7 | 0.00 | 0.00 | 0.00 | 58 | 1013.7 |
| 20260831215538 | 31 | 124 | 4.8 | 8.0 | 0.00 | 0.00 | 0.00 | 59 | 1013.6 |
| 20260831215033 | 31 | 197 | 4.8 | 8.0 | 0.00 | 0.00 | 0.00 | 59 | 1013.8 |
| 20260831214522 | 31 | 89 | 3.2 | 8.0 | 0.00 | 0.00 | 0.00 | 59 | 1013.8 |
| 20260831214016 | 31 | 336 | 3.2 | 9.7 | 0.00 | 0.00 | 0.00 | 62 | 1013.8 |
| 20260831213522 | 31 | 1 | 4.8 | 9.7 | 0.00 | 0.00 | 0.00 | 61 | 1013.8 |
| 20260831213015 | 31 | 197 | 4.8 | 9.7 | 0.00 | 0.00 | 0.00 | 61 | 1013.9 |
| 20260831212522 | 31 | 135 | 6.4 | 9.7 | 0.00 | 0.00 | 0.00 | 59 | 1013.9 |
| 20260831212036 | 31 | 165 | 4.8 | 11.3 | 0.00 | 0.00 | 0.00 | 63 | 1013.9 |
| 20260831211525 | 31 | 218 | 6.4 | 11.3 | 0.00 | 0.00 | 0.00 | 62 | 1013.9 |
| 20260831211039 | 31 | 126 | 4.8 | 11.3 | 0.00 | 0.00 | 0.00 | 63 | 1013.8 |
| 20260831210551 | 31 | 193 | 4.8 | 11.3 | 0.00 | 0.00 | 0.00 | 62 | 1013.9 |
| 20260831210015 | 31 | 147 | 4.8 | 11.3 | 0.00 | 0.00 | 0.00 | 65 | 1014.0 |
| 20260831205532 | 31 | 269 | 3.2 | 11.3 | 0.00 | 0.00 | 0.00 | 65 | 1013.9 |
| 20260831205017 | 31 | 178 | 4.8 | 11.3 | 0.00 | 0.00 | 0.00 | 66 | 1014.0 |
| 20260831204534 | 31 | 178 | 3.2 | 11.3 | 0.00 | 0.00 | 0.00 | 67 | 1014.1 |
| 20260831204021 | 31 | 237 | 4.8 | 12.9 | 0.00 | 0.00 | 0.00 | 67 | 1014.2 |
| 20260831203516 | 31 | 211 | 6.4 | 14.5 | 0.00 | 0.00 | 0.00 | 66 | 1014.1 |
| 20260831203032 | 31 | 168 | 8.0 | 14.5 | 0.00 | 0.00 | 0.00 | 65 | 1014.2 |
| 20260831202520 | 31 | 223 | 1.6 | 8.0 | 0.00 | 0.00 | 0.00 | 65 | 1014.2 |
| 20260831202017 | 31 | 46 | 3.2 | 9.7 | 0.00 | 0.00 | 0.00 | 65 | 1014.4 |
| 20260831201555 | 31 | 214 | 3.2 | 9.7 | 0.00 | 0.00 | 0.00 | 66 | 1014.4 |
| 20260831201020 | 31 | 195 | 4.8 | 11.3 | 0.00 | 0.00 | 0.00 | 64 | 1014.3 |
| 20260831200537 | 31 | 190 | 4.8 | 11.3 | 0.00 | 0.00 | 0.00 | 65 | 1014.3 |
| 20260831200045 | 31 | 203 | 6.4 | 11.3 | 0.00 | 0.00 | 0.00 | 65 | 1014.3 |
| 20260831195516 | 31 | 314 | 4.8 | 11.3 | 0.00 | 0.00 | 0.00 | 64 | 1014.3 |
| 20260831195033 | 31 | 215 | 3.2 | 9.7 | 0.00 | 0.00 | 0.00 | 62 | 1014.3 |
| 20260831194538 | 31 | 219 | 4.8 | 9.7 | 0.00 | 0.00 | 0.00 | 62 | 1014.4 |
| 20260831194024 | 31 | 223 | 4.8 | 9.7 | 0.00 | 0.00 | 0.00 | 65 | 1014.3 |
| 20260831193538 | 31 | 161 | 4.8 | 8.0 | 0.00 | 0.00 | 0.00 | 66 | 1014.3 |
| 20260831193028 | 31 | 197 | 4.8 | 8.0 | 0.00 | 0.00 | 0.00 | 67 | 1014.4 |
| 20260831192514 | 31 | 237 | 3.2 | 8.0 | 0.00 | 0.00 | 0.00 | 66 | 1014.4 |
| 20260831192039 | 30 | 295 | 4.8 | 9.7 | 0.00 | 0.00 | 0.00 | 67 | 1014.4 |
| 20260831191525 | 30 | 269 | 4.8 | 9.7 | 0.00 | 0.00 | 0.00 | 68 | 1014.4 |
| 20260831191037 | 30 | 124 | 1.6 | 8.0 | 0.00 | 0.00 | 0.00 | 70 | 1014.4 |
| 20260831190520 | 30 | 1 | 1.6 | 11.3 | 0.00 | 0.00 | 0.00 | 70 | 1014.5 |
| 20260831190058 | 29 | 49 | 6.4 | 11.3 | 0.00 | 0.00 | 0.00 | 69 | 1014.5 |
| 20260831185523 | 29 | 343 | 3.2 | 9.7 | 0.00 | 0.00 | 0.00 | 70 | 1014.6 |
| 20260831185016 | 29 | 253 | 4.8 | 8.0 | 0.00 | 0.00 | 0.00 | 71 | 1014.7 |
| 20260831184529 | 28 | 46 | 3.2 | 9.7 | 0.00 | 0.00 | 0.00 | 70 | 1014.7 |
| 20260831184015 | 28 | 269 | 3.2 | 11.3 | 0.00 | 0.00 | 0.00 | 70 | 1014.6 |
| 20260831183532 | 28 | 325 | 6.4 | 11.3 | 0.00 | 0.00 | 0.00 | 70 | 1014.7 |
| 20260831183018 | 29 | 148 | 4.8 | 8.0 | 0.00 | 0.00 | 0.00 | 70 | 1014.6 |
| 20260831182535 | 29 | 283 | 4.8 | 8.0 | 0.00 | 0.00 | 0.00 | 69 | 1014.7 |
| 20260831182022 | 29 | 300 | 3.2 | 6.4 | 0.00 | 0.00 | 0.00 | 71 | 1014.6 |
| 20260831181516 | 28 | 46 | 3.2 | 11.3 | 0.00 | 0.00 | 0.00 | 70 | 1014.7 |
| 20260831181033 | 28 | 89 | 1.6 | 11.3 | 0.00 | 0.00 | 0.00 | 70 | 1014.6 |
| 20260831180516 | 28 | 321 | 3.2 | 11.3 | 0.00 | 0.00 | 0.00 | 70 | 1014.6 |
| 20260831180050 | 28 | 331 | 4.8 | 11.3 | 0.00 | 0.00 | 0.00 | 72 | 1014.6 |
| 20260831175520 | 28 | 46 | 1.6 | 8.0 | 0.00 | 0.00 | 0.00 | 71 | 1014.7 |
| 20260831175014 | 28 | 300 | 3.2 | 11.3 | 0.00 | 0.00 | 0.00 | 73 | 1014.6 |
| 20260831174529 | 28 | 59 | 6.4 | 11.3 | 0.00 | 0.00 | 0.00 | 71 | 1014.6 |
| 20260831174057 | 28 | 283 | 3.2 | 11.3 | 0.00 | 0.00 | 0.00 | 73 | 1014.6 |
| 20260831173520 | 27 | 1 | 4.8 | 8.0 | 0.00 | 0.00 | 0.00 | 75 | 1014.6 |
| 20260831173034 | 27 | 108 | 4.8 | 11.3 | 0.00 | 0.00 | 0.00 | 75 | 1014.5 |
| 20260831172517 | 27 | 329 | 3.2 | 14.5 | 0.00 | 0.00 | 0.00 | 75 | 1014.6 |
| 20260831172031 | 27 | 25 | 8.0 | 14.5 | 0.00 | 0.00 | 0.00 | 75 | 1014.4 |
| 20260831171514 | 26 | 328 | 4.8 | 11.3 | 0.00 | 0.00 | 0.00 | 76 | 1014.5 |
| 20260831171048 | 26 | 18 | 3.2 | 14.5 | 0.00 | 0.00 | 0.00 | 76 | 1014.6 |
| 20260831170537 | 26 | 308 | 4.8 | 14.5 | 0.00 | 0.00 | 0.00 | 76 | 1014.5 |
| 20260831170024 | 26 | 350 | 4.8 | 11.3 | 0.00 | 0.00 | 0.00 | 77 | 1014.3 |
| 20260831165536 | 26 | 305 | 3.2 | 12.9 | 0.00 | 0.00 | 0.00 | 77 | 1014.4 |
| 20260831165019 | 26 | 309 | 6.4 | 12.9 | 0.00 | 0.00 | 0.00 | 75 | 1014.3 |
| 20260831164533 | 26 | 314 | 4.8 | 11.3 | 0.00 | 0.00 | 0.00 | 76 | 1014.3 |
| 20260831164040 | 26 | 28 | 8.0 | 11.3 | 0.00 | 0.00 | 0.00 | 76 | 1014.3 |
| 20260831163525 | 26 | 231 | 3.2 | 9.7 | 0.00 | 0.00 | 0.00 | 76 | 1014.4 |
| 20260831163017 | 25 | 28 | 4.8 | 12.9 | 0.00 | 0.00 | 0.00 | 77 | 1014.4 |
| 20260831162542 | 25 | 257 | 4.8 | 16.1 | 0.00 | 0.00 | 0.00 | 77 | 1014.3 |
| 20260831162027 | 25 | 335 | 6.4 | 16.1 | 0.00 | 0.00 | 0.00 | 78 | 1014.0 |
| 20260831161530 | 25 | 304 | 6.4 | 16.1 | 0.00 | 0.00 | 0.00 | 77 | 1013.9 |
| 20260831161020 | 25 | 323 | 6.4 | 11.3 | 0.00 | 0.00 | 0.00 | 78 | 1014.0 |
| 20260831160540 | 25 | 325 | 6.4 | 11.3 | 0.00 | 0.00 | 0.00 | 77 | 1014.1 |
| 20260831160024 | 25 | 269 | 4.8 | 9.7 | 0.00 | 0.00 | 0.00 | 77 | 1014.3 |
| 20260831155534 | 25 | 284 | 4.8 | 9.7 | 0.00 | 0.00 | 0.00 | 78 | 1014.3 |
| 20260831155038 | 24 | 269 | 4.8 | 11.3 | 0.00 | 0.00 | 0.00 | 78 | 1014.2 |
| 20260831154544 | 24 | 296 | 4.8 | 11.3 | 0.00 | 0.00 | 0.00 | 80 | 1014.0 |
| 20260831154014 | 23 | 274 | 4.8 | 11.3 | 0.00 | 0.00 | 0.00 | 81 | 1014.2 |
| 20260831153537 | 23 | 296 | 4.8 | 11.3 | 0.00 | 0.00 | 0.00 | 82 | 1014.0 |
| 20260831153040 | 23 | 299 | 4.8 | 11.3 | 0.00 | 0.00 | 0.00 | 83 | 1013.9 |
| 20260831152533 | 23 | 269 | 3.2 | 11.3 | 0.00 | 0.00 | 0.00 | 83 | 1013.9 |
| 20260831152014 | 22 | 317 | 4.8 | 9.7 | 0.00 | 0.00 | 0.00 | 83 | 1014.0 |
| 20260831151522 | 22 | 298 | 4.8 | 16.1 | 0.00 | 0.00 | 0.00 | 84 | 1014.1 |
| 20260831151014 | 22 | 295 | 8.0 | 16.1 | 0.00 | 0.00 | 0.00 | 84 | 1014.1 |
| 20260831150547 | 22 | 306 | 4.8 | 11.3 | 0.00 | 0.00 | 0.00 | 85 | 1013.9 |
| 20260831150019 | 22 | 286 | 3.2 | 9.7 | 0.00 | 0.00 | 0.00 | 85 | 1014.0 |
| 20260831145523 | 22 | 324 | 4.8 | 11.3 | 0.00 | 0.00 | 0.00 | 85 | 1013.9 |
| 20260831145015 | 22 | 279 | 4.8 | 11.3 | 0.00 | 0.00 | 0.00 | 85 | 1013.6 |
| 20260831144531 | 22 | 327 | 4.8 | 17.7 | 0.00 | 0.00 | 0.00 | 85 | 1013.5 |
| 20260831144019 | 22 | 277 | 8.0 | 20.9 | 0.00 | 0.00 | 0.00 | 85 | 1013.6 |
| 20260831143534 | 22 | 302 | 9.7 | 20.9 | 0.00 | 0.00 | 0.00 | 86 | 1013.7 |
| 20260831143037 | 22 | 307 | 6.4 | 12.9 | 0.00 | 0.00 | 0.00 | 87 | 1013.8 |
| 20260831142522 | 21 | 318 | 6.4 | 14.5 | 0.00 | 0.00 | 0.00 | 88 | 1013.6 |
| 20260831142035 | 21 | 290 | 4.8 | 14.5 | 0.00 | 0.00 | 0.00 | 88 | 1013.6 |
| 20260831141522 | 21 | 269 | 6.4 | 14.5 | 0.00 | 0.00 | 0.00 | 89 | 1013.4 |
| 20260831141035 | 21 | 290 | 4.8 | 16.1 | 0.00 | 0.00 | 0.00 | 90 | 1013.3 |
| 20260831140516 | 21 | 293 | 4.8 | 16.1 | 0.00 | 0.00 | 0.00 | 90 | 1013.4 |
| 20260831140029 | 21 | 295 | 4.8 | 14.5 | 0.00 | 0.00 | 0.00 | 90 | 1013.3 |
| 20260831135557 | 21 | 247 | 4.8 | 14.5 | 0.00 | 0.00 | 0.00 | 90 | 1012.8 |
| 20260831135040 | 21 | 308 | 6.4 | 12.9 | 0.00 | 0.00 | 0.00 | 90 | 1012.8 |
| 20260831134555 | 20 | 229 | 4.8 | 12.9 | 0.00 | 0.00 | 0.00 | 90 | 1012.8 |
| 20260831134017 | 20 | 299 | 4.8 | 12.9 | 0.00 | 0.00 | 0.00 | 90 | 1012.8 |
| 20260831133533 | 20 | 25 | 6.4 | 12.9 | 0.00 | 0.00 | 0.00 | 90 | 1012.8 |
| 20260831133038 | 20 | 324 | 4.8 | 12.9 | 0.00 | 0.00 | 0.00 | 90 | 1013.1 |
| 20260831132524 | 20 | 314 | 4.8 | 12.9 | 0.00 | 0.00 | 0.00 | 90 | 1013.7 |
| 20260831132035 | 20 | 300 | 4.8 | 8.0 | 0.00 | 0.00 | 0.00 | 91 | 1013.8 |
| 20260831131542 | 20 | 314 | 3.2 | 8.0 | 0.00 | 0.00 | 0.00 | 91 | 1013.8 |
| 20260831131026 | 20 | 269 | 3.2 | 9.7 | 0.00 | 0.00 | 0.00 | 90 | 1013.6 |
| 20260831130537 | 20 | 274 | 4.8 | 9.7 | 0.00 | 0.00 | 0.00 | 90 | 1013.4 |
| 20260831130040 | 20 | 304 | 4.8 | 9.7 | 0.00 | 0.00 | 0.00 | 90 | 1013.9 |
| 20260831125527 | 20 | 286 | 4.8 | 9.7 | 0.00 | 0.00 | 0.00 | 90 | 1014.5 |
| 20260831125039 | 20 | 321 | 3.2 | 8.0 | 0.00 | 0.00 | 0.00 | 90 | 1014.9 |
| 20260831124525 | 20 | 89 | 3.2 | 14.5 | 0.00 | 0.00 | 0.00 | 91 | 1015.3 |
| 20260831124034 | 20 | 350 | 3.2 | 14.5 | 0.00 | 0.00 | 0.00 | 91 | 1015.5 |
| 20260831123520 | 20 | 216 | 3.2 | 9.7 | 0.00 | 0.00 | 0.00 | 91 | 1015.2 |
| 20260831123033 | 20 | 178 | 3.2 | 9.7 | 0.00 | 0.00 | 0.00 | 91 | 1015.0 |
| 20260831122519 | 20 | 68 | 3.2 | 9.7 | 0.00 | 0.00 | 0.00 | 91 | 1014.8 |
| 20260831122035 | 20 | 241 | 3.2 | 6.4 | 0.00 | 0.00 | 0.00 | 91 | 1014.7 |
| 20260831121520 | 20 | 197 | 1.6 | 6.4 | 0.00 | 0.00 | 0.00 | 90 | 1014.1 |
| 20260831121034 | 20 | 290 | 1.6 | 6.4 | 0.00 | 0.00 | 0.00 | 90 | 1013.9 |
| 20260831120518 | 20 | 331 | 1.6 | 8.0 | 0.00 | 0.00 | 0.00 | 90 | 1013.5 |
| 20260831120033 | 20 | 269 | 1.6 | 9.7 | 0.00 | 0.00 | 0.00 | 90 | 1013.3 |
| 20260831115518 | 20 | 245 | 3.2 | 9.7 | 0.00 | 0.00 | 0.00 | 90 | 1013.1 |
| 20260831115031 | 20 | 283 | 3.2 | 8.0 | 0.00 | 0.00 | 0.00 | 91 | 1012.9 |
| 20260831114517 | 20 | 296 | 3.2 | 8.0 | 0.00 | 0.00 | 0.00 | 91 | 1012.7 |
| 20260831114032 | 21 | 1 | 1.6 | 9.7 | 0.00 | 0.00 | 0.00 | 91 | 1012.6 |
| 20260831113535 | 21 | 314 | 3.2 | 12.9 | 0.00 | 0.00 | 0.00 | 91 | 1012.3 |
| 20260831113023 | 21 | 310 | 6.4 | 12.9 | 0.00 | 0.00 | 0.00 | 91 | 1012.2 |
| 20260831112515 | 21 | 307 | 4.8 | 12.9 | 0.00 | 0.00 | 0.00 | 91 | 1012.1 |
| 20260831112022 | 21 | 303 | 4.8 | 14.5 | 0.00 | 0.00 | 0.00 | 92 | 1012.0 |
| 20260831111515 | 21 | 296 | 6.4 | 14.5 | 0.00 | 0.00 | 0.00 | 92 | 1012.0 |
| 20260831111021 | 21 | 304 | 4.8 | 16.1 | 0.00 | 0.00 | 0.00 | 93 | 1012.0 |
| 20260831110536 | 22 | 299 | 8.0 | 16.1 | 0.00 | 0.00 | 0.00 | 94 | 1011.8 |
| 20260831110023 | 22 | 306 | 6.4 | 14.5 | 0.00 | 0.00 | 0.00 | 94 | 1011.7 |
| 20260831105515 | 22 | 269 | 1.6 | 6.4 | 0.00 | 0.03 | 0.00 | 95 | 1011.7 |
| 20260831105020 | 22 | 303 | 1.6 | 4.8 | 0.00 | 0.03 | 0.00 | 95 | 1011.7 |
| 20260831104529 | 22 | 135 | 1.6 | 4.8 | 0.00 | 0.03 | 0.00 | 95 | 1011.4 |
| 20260831104013 | 22 | 286 | 0.0 | 6.4 | 0.00 | 0.03 | 0.00 | 95 | 1011.1 |
| 20260831103519 | 22 | 308 | 1.6 | 9.7 | 0.00 | 0.03 | 0.00 | 96 | 1010.9 |
| 20260831103033 | 22 | 1 | 4.8 | 9.7 | 0.00 | 0.03 | 0.00 | 95 | 1010.7 |
| 20260831102537 | 22 | 327 | 1.6 | 6.4 | 0.00 | 0.03 | 0.00 | 95 | 1010.8 |
| 20260831102032 | 22 | 303 | 1.6 | 6.4 | 0.00 | 0.03 | 0.00 | 96 | 1010.7 |
| 20260831101517 | 22 | 314 | 3.2 | 6.4 | 0.00 | 0.03 | 0.00 | 96 | 1010.7 |
| 20260831101031 | 22 | 28 | 0.0 | 3.2 | 0.00 | 0.03 | 0.00 | 96 | 1010.7 |
| 20260831100517 | 21 | 340 | 1.6 | 3.2 | 0.00 | 0.03 | 0.00 | 96 | 1010.5 |
| 20260831100033 | 21 | 46 | 1.6 | 3.2 | 0.00 | 0.03 | 0.00 | 96 | 1010.6 |
| 20260831095521 | 21 | 303 | 1.6 | 3.2 | 0.00 | 0.03 | 0.00 | 96 | 1010.6 |
| 20260831095035 | 21 | 1 | 1.6 | 3.2 | 0.00 | 0.03 | 0.00 | 96 | 1010.5 |
| 20260831094531 | 21 | 206 | 1.6 | 3.2 | 0.00 | 0.03 | 0.00 | 96 | 1010.5 |
| 20260831094058 | 21 | 303 | 1.6 | 4.8 | 0.00 | 0.03 | 0.00 | 96 | 1010.5 |
| 20260831093525 | 21 | 269 | 1.6 | 4.8 | 0.00 | 0.03 | 0.00 | 96 | 1010.5 |
| 20260831093016 | 21 | 303 | 1.6 | 3.2 | 0.00 | 0.03 | 0.00 | 96 | 1010.5 |
| 20260831092517 | 21 | 314 | 1.6 | 3.2 | 0.00 | 0.03 | 0.00 | 96 | 1010.5 |
| 20260831092033 | 21 | 63 | 1.6 | 3.2 | 0.00 | 0.03 | 0.00 | 96 | 1010.5 |
| 20260831091537 | 21 | 331 | 0.0 | 3.2 | 0.00 | 0.03 | 0.00 | 96 | 1010.4 |
| 20260831091024 | 21 | 250 | 0.0 | 3.2 | 0.00 | 0.03 | 0.00 | 96 | 1010.3 |
| 20260831090559 | 21 | 241 | 0.0 | 3.2 | 0.00 | 0.03 | 0.00 | 96 | 1010.3 |
| 20260831090025 | 21 | 314 | 0.0 | 3.2 | 0.00 | 0.03 | 0.00 | 96 | 1010.3 |
| 20260831085536 | 21 | 269 | 0.0 | 1.6 | 0.00 | 0.03 | 0.00 | 96 | 1010.2 |
| 20260831085054 | 21 | 269 | 0.0 | 1.6 | 0.00 | 0.03 | 0.00 | 96 | 1010.2 |
| 20260831084539 | 21 | 314 | 0.0 | 1.6 | 0.00 | 0.03 | 0.00 | 95 | 1010.1 |
| 20260831084045 | 21 | 296 | 0.0 | 3.2 | 0.00 | 0.03 | 0.00 | 95 | 1010.1 |
| 20260831083538 | 21 | 314 | 0.0 | 3.2 | 0.00 | 0.03 | 0.00 | 96 | 1010.1 |
| 20260831083026 | 21 | 269 | 0.0 | 1.6 | 0.00 | 0.03 | 0.00 | 96 | 1010.1 |
| 20260831082530 | 21 | 1 | 0.0 | 3.2 | 0.00 | 0.03 | 0.00 | 96 | 1010.1 |
| 20260831082016 | 21 | 89 | 0.0 | 3.2 | 0.00 | 0.03 | 0.00 | 96 | 1010.2 |
| 20260831081532 | 21 | 1 | 1.6 | 8.0 | 0.00 | 0.03 | 0.00 | 96 | 1010.1 |
| 20260831081018 | 21 | 290 | 3.2 | 8.0 | 0.00 | 0.03 | 0.00 | 96 | 1010.1 |
| 20260831080534 | 21 | 290 | 4.8 | 8.0 | 0.00 | 0.03 | 0.00 | 95 | 1010.0 |
| 20260831080040 | 21 | 306 | 4.8 | 6.4 | 0.00 | 0.03 | 0.00 | 96 | 1010.0 |
| 20260831075533 | 21 | 269 | 1.6 | 1.6 | 0.00 | 0.03 | 0.00 | 96 | 1009.9 |
| 20260831075024 | 21 | 303 | 0.0 | 3.2 | 0.00 | 0.03 | 0.00 | 95 | 1009.9 |
| 20260831074539 | 21 | 269 | 1.6 | 3.2 | 0.00 | 0.03 | 0.00 | 95 | 1009.9 |
| 20260831074028 | 21 | 331 | 1.6 | 3.2 | 0.00 | 0.03 | 0.00 | 95 | 1009.9 |
| 20260831073514 | 21 | 46 | 0.0 | 1.6 | 0.00 | 0.03 | 0.00 | 95 | 1010.0 |
| 20260831073031 | 21 | 46 | 0.0 | 3.2 | 0.00 | 0.03 | 0.00 | 95 | 1010.1 |
| 20260831072538 | 21 | 269 | 1.6 | 3.2 | 0.00 | 0.03 | 0.00 | 95 | 1010.1 |
| 20260831072048 | 21 | 303 | 0.0 | 3.2 | 0.00 | 0.03 | 0.00 | 96 | 1010.1 |
| 20260831071533 | 21 | 135 | 0.0 | 3.2 | 0.00 | 0.03 | 0.00 | 96 | 1010.2 |
| 20260831071100 | 21 | 314 | 0.0 | 3.2 | 0.00 | 0.03 | 0.00 | 96 | 1010.2 |
| 20260831070526 | 21 | 135 | 1.6 | 3.2 | 0.00 | 0.03 | 0.00 | 95 | 1010.1 |
| 20260831070033 | 21 | 127 | 1.6 | 3.2 | 0.00 | 0.03 | 0.00 | 94 | 1010.1 |
| 20260831065517 | 21 | 269 | 0.0 | 3.2 | 0.00 | 0.03 | 0.00 | 95 | 1010.1 |
| 20260831065034 | 21 | 178 | 0.0 | 3.2 | 0.00 | 0.03 | 0.00 | 95 | 1009.9 |
| 20260831064522 | 21 | 331 | 0.0 | 3.2 | 0.00 | 0.03 | 0.00 | 95 | 1010.1 |
| 20260831064016 | 21 | 56 | 1.6 | 3.2 | 0.00 | 0.03 | 0.00 | 95 | 1010.1 |
| 20260831063532 | 21 | 108 | 1.6 | 3.2 | 0.00 | 0.03 | 0.00 | 95 | 1010.0 |
| 20260831063018 | 21 | 117 | 1.6 | 3.2 | 0.00 | 0.03 | 0.00 | 95 | 1010.0 |
| 20260831062533 | 21 | 1 | 0.0 | 4.8 | 0.00 | 0.03 | 0.00 | 95 | 1010.0 |
| 20260831062019 | 21 | 108 | 1.6 | 4.8 | 0.00 | 0.03 | 0.00 | 95 | 1010.0 |
| 20260831061554 | 21 | 102 | 1.6 | 4.8 | 0.00 | 0.03 | 0.00 | 95 | 1009.9 |
| 20260831061018 | 21 | 117 | 1.6 | 3.2 | 0.00 | 0.03 | 0.00 | 95 | 1010.0 |
| 20260831060535 | 21 | 1 | 1.6 | 4.8 | 0.00 | 0.03 | 0.00 | 95 | 1009.8 |
| 20260831060020 | 21 | 178 | 3.2 | 4.8 | 0.00 | 0.03 | 0.00 | 94 | 1009.7 |
| 20260831055534 | 21 | 46 | 0.0 | 1.6 | 0.00 | 0.03 | 0.00 | 95 | 1009.6 |
| 20260831055017 | 21 | 46 | 0.0 | 1.6 | 0.00 | 0.03 | 0.00 | 95 | 1009.6 |
| 20260831054533 | 21 | 314 | 0.0 | 1.6 | 0.00 | 0.03 | 0.00 | 95 | 1009.7 |
| 20260831054016 | 21 | 117 | 0.0 | 3.2 | 0.00 | 0.03 | 0.00 | 94 | 1009.6 |
| 20260831053542 | 21 | 314 | 1.6 | 3.2 | 0.00 | 0.03 | 0.00 | 95 | 1009.5 |
| 20260831053029 | 21 | 46 | 0.0 | 3.2 | 0.00 | 0.03 | 0.00 | 94 | 1009.4 |
| 20260831052558 | 21 | 152 | 1.6 | 3.2 | 0.00 | 0.03 | 0.00 | 94 | 1009.4 |
| 20260831052019 | 21 | 178 | 1.6 | 3.2 | 0.00 | 0.03 | 0.00 | 93 | 1009.3 |
| 20260831051533 | 21 | 28 | 0.0 | 3.2 | 0.00 | 0.03 | 0.00 | 94 | 1009.1 |
| 20260831051020 | 22 | 152 | 0.0 | 3.2 | 0.00 | 0.03 | 0.00 | 94 | 1009.1 |
| 20260831050514 | 22 | 135 | 0.0 | 3.2 | 0.00 | 0.03 | 0.00 | 94 | 1009.2 |
| 20260831050027 | 22 | 108 | 1.6 | 3.2 | 0.00 | 0.03 | 0.00 | 94 | 1009.1 |
| 20260831045534 | 22 | 89 | 0.0 | 3.2 | 0.00 | 0.03 | 0.03 | 94 | 1009.3 |
| 20260831045021 | 22 | 178 | 1.6 | 3.2 | 0.00 | 0.03 | 0.03 | 93 | 1009.4 |
| 20260831044535 | 22 | 165 | 1.6 | 3.2 | 0.00 | 0.03 | 0.03 | 93 | 1009.4 |
| 20260831044020 | 22 | 1 | 0.0 | 3.2 | 0.00 | 0.03 | 0.03 | 93 | 1009.2 |
| 20260831043513 | 22 | 105 | 1.6 | 3.2 | 0.00 | 0.03 | 0.03 | 93 | 1009.5 |
| 20260831043029 | 22 | 46 | 0.0 | 1.6 | 0.00 | 0.03 | 0.03 | 93 | 1009.6 |
| 20260831042601 | 22 | 269 | 0.0 | 3.2 | 0.00 | 0.03 | 0.03 | 92 | 1009.5 |
| 20260831042029 | 22 | 161 | 1.6 | 3.2 | 0.00 | 0.03 | 0.03 | 93 | 1009.4 |
| 20260831041604 | 22 | 241 | 1.6 | 3.2 | 0.00 | 0.03 | 0.03 | 92 | 1009.4 |
| 20260831041522 | 22 | 241 | 1.6 | 3.2 | 0.00 | 0.03 | 0.03 | 92 | 1009.4 |
| 20260831041015 | 23 | 178 | 1.6 | 3.2 | 0.00 | 0.03 | 0.03 | 93 | 1009.3 |
| 20260831040518 | 23 | 152 | 0.0 | 4.8 | 0.00 | 0.03 | 0.03 | 93 | 1009.4 |
| 20260831040034 | 23 | 336 | 3.2 | 4.8 | 0.00 | 0.03 | 0.03 | 93 | 1009.6 |
| 20260831035520 | 23 | 1 | 0.0 | 3.2 | 0.00 | 0.03 | 0.03 | 93 | 1009.5 |
| 20260831035016 | 23 | 46 | 0.0 | 3.2 | 0.00 | 0.03 | 0.03 | 92 | 1009.5 |
| 20260831034531 | 23 | 1 | 1.6 | 3.2 | 0.00 | 0.03 | 0.03 | 92 | 1009.6 |
| 20260831034017 | 23 | 1 | 0.0 | 1.6 | 0.00 | 0.03 | 0.03 | 92 | 1009.6 |
| 20260831033553 | 23 | 213 | 0.0 | 1.6 | 0.00 | 0.03 | 0.03 | 92 | 1009.6 |
| 20260831033017 | 23 | 213 | 0.0 | 3.2 | 0.00 | 0.03 | 0.03 | 92 | 1009.7 |
| 20260831032533 | 23 | 269 | 1.6 | 3.2 | 0.00 | 0.03 | 0.03 | 91 | 1009.7 |
| 20260831032019 | 23 | 1 | 1.6 | 3.2 | 0.00 | 0.03 | 0.03 | 91 | 1009.7 |
| 20260831031535 | 23 | 89 | 0.0 | 1.6 | 0.00 | 0.03 | 0.03 | 91 | 1009.7 |
| 20260831031020 | 23 | 269 | 0.0 | 3.2 | 0.00 | 0.03 | 0.03 | 91 | 1009.8 |
| 20260831030537 | 23 | 269 | 0.0 | 3.2 | 0.00 | 0.03 | 0.03 | 91 | 1009.9 |
| 20260831030025 | 23 | 331 | 1.6 | 3.2 | 0.00 | 0.03 | 0.03 | 91 | 1009.9 |
| 20260831025515 | 23 | 135 | 1.6 | 3.2 | 0.00 | 0.03 | 0.03 | 90 | 1009.8 |
| 20260831025022 | 23 | 63 | 1.6 | 3.2 | 0.00 | 0.03 | 0.03 | 90 | 1009.9 |
| 20260831024537 | 23 | 124 | 1.6 | 3.2 | 0.00 | 0.03 | 0.03 | 90 | 1009.9 |
| 20260831024021 | 24 | 89 | 1.6 | 3.2 | 0.00 | 0.03 | 0.03 | 89 | 1009.9 |
| 20260831023517 | 24 | 46 | 1.6 | 3.2 | 0.00 | 0.03 | 0.03 | 89 | 1009.8 |
| 20260831023019 | 24 | 178 | 0.0 | 4.8 | 0.00 | 0.03 | 0.03 | 89 | 1009.7 |
| 20260831022556 | 24 | 269 | 1.6 | 4.8 | 0.00 | 0.03 | 0.03 | 87 | 1009.7 |
| 20260831022021 | 25 | 124 | 3.2 | 4.8 | 0.00 | 0.03 | 0.03 | 87 | 1009.6 |
| 20260831021514 | 25 | 135 | 0.0 | 1.6 | 0.00 | 0.03 | 0.03 | 87 | 1009.6 |
| 20260831021031 | 25 | 241 | 0.0 | 3.2 | 0.00 | 0.03 | 0.03 | 87 | 1009.7 |
| 20260831020519 | 25 | 46 | 1.6 | 3.2 | 0.00 | 0.03 | 0.03 | 86 | 1009.4 |
| 20260831020034 | 25 | 178 | 1.6 | 3.2 | 0.00 | 0.03 | 0.03 | 86 | 1009.4 |
| 20260831015520 | 26 | 197 | 1.6 | 3.2 | 0.00 | 0.03 | 0.03 | 85 | 1009.4 |
| 20260831015016 | 26 | 223 | 0.0 | 1.6 | 0.00 | 0.03 | 0.03 | 85 | 1009.2 |
| 20260831014532 | 26 | 152 | 0.0 | 3.2 | 0.00 | 0.03 | 0.03 | 84 | 1009.1 |
| 20260831014038 | 26 | 46 | 1.6 | 3.2 | 0.00 | 0.03 | 0.03 | 83 | 1009.2 |
| 20260831013527 | 26 | 178 | 0.0 | 1.6 | 0.00 | 0.03 | 0.03 | 83 | 1009.2 |
| 20260831013015 | 26 | 269 | 0.0 | 1.6 | 0.00 | 0.03 | 0.03 | 82 | 1009.1 |
| 20260831012532 | 27 | 46 | 0.0 | 1.6 | 0.00 | 0.03 | 0.03 | 82 | 1009.0 |
| 20260831012017 | 27 | 46 | 0.0 | 3.2 | 0.00 | 0.03 | 0.03 | 82 | 1008.9 |
| 20260831011554 | 27 | 1 | 1.6 | 3.2 | 0.00 | 0.03 | 0.03 | 81 | 1009.0 |
| 20260831011038 | 27 | 286 | 1.6 | 3.2 | 0.00 | 0.03 | 0.03 | 81 | 1009.0 |
| 20260831010525 | 27 | 1 | 1.6 | 3.2 | 0.00 | 0.03 | 0.03 | 81 | 1009.1 |
| 20260831010020 | 28 | 314 | 0.0 | 1.6 | 0.00 | 0.03 | 0.03 | 80 | 1009.0 |
| 20260831005515 | 28 | 178 | 0.0 | 3.2 | 0.00 | 0.03 | 0.03 | 80 | 1009.1 |
| 20260831005019 | 28 | 1 | 0.0 | 3.2 | 0.00 | 0.03 | 0.03 | 80 | 1009.2 |
| 20260831004534 | 28 | 331 | 1.6 | 1.6 | 0.00 | 0.03 | 0.03 | 80 | 1009.1 |
| 20260831004029 | 28 | 295 | 0.0 | 1.6 | 0.00 | 0.03 | 0.03 | 80 | 1009.0 |
| 20260831003516 | 28 | 178 | 0.0 | 3.2 | 0.00 | 0.03 | 0.03 | 79 | 1008.9 |
| 20260831003033 | 28 | 269 | 0.0 | 4.8 | 0.00 | 0.03 | 0.03 | 79 | 1009.0 |
| 20260831002540 | 28 | 206 | 1.6 | 4.8 | 0.00 | 0.03 | 0.03 | 78 | 1008.9 |
| 20260831002055 | 29 | 178 | 3.2 | 6.4 | 0.00 | 0.03 | 0.03 | 78 | 1008.8 |
| 20260831001523 | 29 | 168 | 3.2 | 6.4 | 0.00 | 0.03 | 0.03 | 77 | 1008.9 |